ASTRA 4A (SIRIUS 4)     
1 32299U 07057A   19265.93104742  .00000024  00000-0  00000+0 0  9992
2 32299   0.0122 101.7096 0002901  90.4962 149.2953  1.00272758 43291
BREEZE-M R/B            
1 32301U 07057C   19265.17185743  .00000022  00000-0  00000+0 0  9990
2 32301  17.0860 296.5077 5164684 154.8352 251.3622  1.90167843 82270